Time,TemperatureF,DewpointF,PressureIn,WindDirection,WindDirectionDegrees,WindSpeedMPH,WindSpeedGustMPH,Humidity,HourlyPrecipIn,Conditions,Clouds,dailyrainin,SoftwareType,DateUTC
2013-01-15 00:03:00,46.0,46.0,30.06,NNW,332,0.0,1.0,99,0.00,,,1.79,,2013-01-15 05:03:00,
2013-01-15 00:12:00,46.0,46.0,30.06,NNW,332,0.0,1.0,99,0.00,,,1.79,,2013-01-15 05:12:00,
2013-01-15 00:22:00,46.0,46.0,30.06,NNW,332,0.0,0.0,99,0.00,,,1.79,,2013-01-15 05:22:00,
2013-01-15 00:33:00,47.0,47.0,30.06,NNW,332,0.0,2.0,99,0.00,,,1.79,,2013-01-15 05:33:00,
2013-01-15 00:42:00,47.0,47.0,30.06,NNW,332,0.0,2.0,99,0.00,,,1.79,,2013-01-15 05:42:00,
2013-01-15 00:53:00,47.0,47.0,30.05,NNW,332,0.0,2.0,99,0.00,,,1.79,,2013-01-15 05:53:00,
2013-01-15 01:02:00,47.0,47.0,30.05,NNW,332,0.0,2.0,99,0.00,,,1.39,,2013-01-15 06:02:00,
2013-01-15 01:12:00,47.0,47.0,30.05,NNW,332,0.0,2.0,99,0.00,,,1.39,,2013-01-15 06:12:00,
2013-01-15 01:22:00,48.0,48.0,30.05,NNW,332,0.0,2.0,99,0.00,,,1.39,,2013-01-15 06:22:00,
2013-01-15 01:33:00,48.0,48.0,30.05,NNW,332,0.0,0.0,99,0.00,,,1.39,,2013-01-15 06:33:00,
2013-01-15 01:43:00,48.0,48.0,30.05,NNW,332,0.0,0.0,99,0.00,,,1.39,,2013-01-15 06:43:00,
2013-01-15 01:53:00,48.0,48.0,30.04,NNW,332,0.0,1.0,99,0.02,,,1.41,,2013-01-15 06:53:00,
2013-01-15 02:02:00,48.0,48.0,30.04,NNW,332,1.0,2.0,99,0.03,,,1.35,,2013-01-15 07:02:00,
2013-01-15 02:12:00,48.0,48.0,30.04,NNW,332,1.0,2.0,99,0.03,,,1.35,,2013-01-15 07:12:00,
2013-01-15 02:22:00,51.0,51.0,30.02,NNE,12,1.0,5.0,99,0.04,,,1.36,,2013-01-15 07:22:00,
2013-01-15 02:33:00,57.0,57.0,30.02,ESE,103,1.0,7.0,99,0.05,,,1.37,,2013-01-15 07:33:00,
2013-01-15 02:42:00,57.0,57.0,30.02,ESE,103,1.0,7.0,99,0.05,,,1.37,,2013-01-15 07:42:00,
2013-01-15 02:53:00,52.0,52.0,30.02,NNW,327,0.0,5.0,99,0.04,,,1.38,,2013-01-15 07:53:00,
2013-01-15 03:02:00,51.0,51.0,30.02,NNW,327,0.0,2.0,99,0.03,,,1.38,,2013-01-15 08:02:00,
2013-01-15 03:12:00,51.0,51.0,30.02,NNW,327,0.0,2.0,99,0.03,,,1.38,,2013-01-15 08:12:00,
2013-01-15 03:22:00,56.0,56.0,30.01,SSW,200,2.0,6.0,99,0.02,,,1.38,,2013-01-15 08:22:00,
2013-01-15 03:33:00,57.0,57.0,30.01,West,280,0.0,4.0,99,0.02,,,1.39,,2013-01-15 08:33:00,
2013-01-15 03:42:00,57.0,57.0,30.01,West,280,0.0,4.0,99,0.02,,,1.39,,2013-01-15 08:42:00,
2013-01-15 03:53:00,57.0,57.0,30.01,ENE,62,0.0,3.0,99,0.01,,,1.39,,2013-01-15 08:53:00,
2013-01-15 04:02:00,58.0,58.0,30.01,WSW,251,1.0,5.0,99,0.02,,,1.39,,2013-01-15 09:02:00,
2013-01-15 04:12:00,58.0,58.0,30.01,WSW,251,1.0,5.0,99,0.02,,,1.39,,2013-01-15 09:12:00,
2013-01-15 04:22:00,58.0,58.0,30.00,WSW,241,2.0,8.0,99,0.02,,,1.39,,2013-01-15 09:22:00,
2013-01-15 04:33:00,58.0,58.0,30.00,East,101,1.0,8.0,99,0.01,,,1.39,,2013-01-15 09:33:00,
2013-01-15 04:42:00,58.0,58.0,30.00,East,101,1.0,8.0,99,0.01,,,1.39,,2013-01-15 09:42:00,
2013-01-15 04:52:00,58.0,58.0,30.01,ESE,114,1.0,6.0,99,0.05,,,1.43,,2013-01-15 09:52:00,
2013-01-15 05:02:00,58.0,58.0,30.00,ENE,61,1.0,5.0,99,0.10,,,1.48,,2013-01-15 10:02:00,
2013-01-15 05:12:00,58.0,58.0,30.00,ENE,61,1.0,5.0,99,0.10,,,1.48,,2013-01-15 10:12:00,
2013-01-15 05:22:00,58.0,58.0,30.02,ENE,63,2.0,3.0,99,0.16,,,1.55,,2013-01-15 10:22:00,
2013-01-15 05:32:00,58.0,58.0,30.01,ENE,70,0.0,4.0,99,0.24,,,1.63,,2013-01-15 10:32:00,
2013-01-15 05:42:00,58.0,58.0,30.01,ENE,70,0.0,4.0,99,0.24,,,1.63,,2013-01-15 10:42:00,
2013-01-15 05:52:00,58.0,58.0,29.98,WSW,250,0.0,6.0,99,0.25,,,1.67,,2013-01-15 10:52:00,
2013-01-15 06:02:00,58.0,57.0,29.99,SSW,194,2.0,7.0,98,0.21,,,1.64,,2013-01-15 11:02:00,
2013-01-15 06:12:00,58.0,57.0,29.99,SSW,194,2.0,7.0,98,0.21,,,1.64,,2013-01-15 11:12:00,
2013-01-15 06:22:00,58.0,57.0,30.00,SSE,153,1.0,7.0,98,0.19,,,1.68,,2013-01-15 11:22:00,
2013-01-15 06:33:00,58.0,57.0,30.00,SW,223,1.0,6.0,98,0.18,,,1.76,,2013-01-15 11:33:00,
2013-01-15 06:43:00,58.0,57.0,30.00,SW,223,1.0,6.0,98,0.18,,,1.76,,2013-01-15 11:43:00,
2013-01-15 06:53:00,58.0,57.0,30.00,SSW,205,3.0,8.0,97,0.20,,,1.82,,2013-01-15 11:53:00,
2013-01-15 07:03:00,58.0,57.0,30.01,West,270,1.0,7.0,97,0.23,,,1.85,,2013-01-15 12:03:00,
2013-01-15 07:12:00,58.0,57.0,30.01,West,270,1.0,7.0,97,0.23,,,1.85,,2013-01-15 12:12:00,
2013-01-15 07:22:00,58.0,57.0,30.01,WSW,246,1.0,5.0,97,0.24,,,1.90,,2013-01-15 12:22:00,
2013-01-15 07:33:00,58.0,57.0,30.01,South,184,0.0,5.0,97,0.21,,,1.95,,2013-01-15 12:33:00,
2013-01-15 07:43:00,58.0,57.0,30.01,South,184,0.0,5.0,97,0.21,,,1.95,,2013-01-15 12:43:00,
2013-01-15 07:53:00,58.0,57.0,30.02,ESE,118,0.0,4.0,97,0.19,,,1.99,,2013-01-15 12:53:00,
2013-01-15 08:03:00,58.0,57.0,30.02,SSE,159,1.0,4.0,97,0.17,,,1.78,,2013-01-15 13:03:00,
2013-01-15 08:12:00,58.0,57.0,30.02,SSE,159,1.0,4.0,97,0.17,,,1.78,,2013-01-15 13:12:00,
2013-01-15 08:23:00,57.0,56.0,30.02,SE,145,0.0,4.0,97,0.14,,,1.80,,2013-01-15 13:23:00,
2013-01-15 08:33:00,57.0,56.0,30.03,NE,43,1.0,2.0,98,0.10,,,1.81,,2013-01-15 13:33:00,
2013-01-15 08:43:00,57.0,56.0,30.03,NE,43,1.0,2.0,98,0.10,,,1.81,,2013-01-15 13:43:00,
2013-01-15 08:53:00,57.0,56.0,30.03,NE,43,0.0,0.0,98,0.07,,,1.82,,2013-01-15 13:53:00,
2013-01-15 09:03:00,57.0,56.0,30.04,NNE,26,0.0,2.0,98,0.07,,,1.71,,2013-01-15 14:03:00,
2013-01-15 09:13:00,57.0,56.0,30.04,NNE,26,0.0,2.0,98,0.07,,,1.71,,2013-01-15 14:13:00,
2013-01-15 09:23:00,56.0,55.0,30.05,North,5,1.0,4.0,97,0.06,,,1.72,,2013-01-15 14:23:00,
2013-01-15 09:33:00,55.0,54.0,30.04,East,85,0.0,1.0,97,0.06,,,1.73,,2013-01-15 14:33:00,
2013-01-15 09:43:00,55.0,54.0,30.04,East,85,0.0,1.0,97,0.06,,,1.73,,2013-01-15 14:43:00,
2013-01-15 09:54:00,55.0,54.0,30.04,East,85,0.0,0.0,97,0.06,,,1.74,,2013-01-15 14:54:00,
2013-01-15 10:03:00,54.0,53.0,30.04,East,85,0.0,1.0,97,0.06,,,1.71,,2013-01-15 15:03:00,
2013-01-15 10:12:00,54.0,53.0,30.04,East,85,0.0,1.0,97,0.06,,,1.71,,2013-01-15 15:12:00,
2013-01-15 10:23:00,54.0,53.0,30.04,East,85,1.0,2.0,97,0.05,,,1.71,,2013-01-15 15:23:00,
2013-01-15 10:33:00,54.0,53.0,30.04,ENE,63,0.0,1.0,98,0.05,,,1.72,,2013-01-15 15:33:00,
2013-01-15 10:43:00,54.0,53.0,30.04,ENE,63,0.0,1.0,98,0.05,,,1.72,,2013-01-15 15:43:00,
2013-01-15 10:53:00,53.0,52.0,30.04,ENE,63,0.0,0.0,98,0.06,,,1.74,,2013-01-15 15:53:00,
2013-01-15 11:03:00,54.0,53.0,30.03,ENE,63,0.0,1.0,98,0.05,,,1.71,,2013-01-15 16:03:00,
2013-01-15 11:12:00,54.0,53.0,30.03,ENE,63,0.0,1.0,98,0.05,,,1.71,,2013-01-15 16:12:00,
2013-01-15 11:23:00,54.0,53.0,30.03,ENE,63,0.0,1.0,98,0.07,,,1.74,,2013-01-15 16:23:00,
2013-01-15 11:33:00,54.0,53.0,30.02,ENE,63,0.0,1.0,98,0.06,,,1.74,,2013-01-15 16:33:00,
2013-01-15 11:43:00,54.0,53.0,30.02,ENE,63,0.0,1.0,98,0.06,,,1.74,,2013-01-15 16:43:00,
2013-01-15 11:53:00,54.0,53.0,30.02,ENE,63,0.0,1.0,98,0.04,,,1.74,,2013-01-15 16:53:00,
2013-01-15 12:03:00,54.0,53.0,30.01,ENE,63,0.0,1.0,98,0.05,,,1.56,,2013-01-15 17:03:00,
2013-01-15 12:12:00,54.0,53.0,30.01,ENE,63,0.0,1.0,98,0.05,,,1.56,,2013-01-15 17:12:00,
2013-01-15 12:23:00,54.0,53.0,29.99,ENE,63,0.0,1.0,98,0.03,,,1.57,,2013-01-15 17:23:00,
2013-01-15 12:33:00,54.0,54.0,29.98,ENE,63,1.0,2.0,99,0.04,,,1.58,,2013-01-15 17:33:00,
2013-01-15 12:43:00,54.0,54.0,29.98,ENE,63,1.0,2.0,99,0.04,,,1.58,,2013-01-15 17:43:00,
2013-01-15 12:53:00,55.0,55.0,29.97,North,9,0.0,3.0,99,0.05,,,1.59,,2013-01-15 17:53:00,
2013-01-15 13:03:00,56.0,56.0,29.96,NW,320,0.0,3.0,99,0.04,,,1.40,,2013-01-15 18:03:00,
2013-01-15 13:13:00,56.0,56.0,29.96,NW,320,0.0,3.0,99,0.04,,,1.40,,2013-01-15 18:13:00,
2013-01-15 13:23:00,57.0,57.0,29.96,WSW,242,0.0,6.0,99,0.03,,,1.40,,2013-01-15 18:23:00,
2013-01-15 13:33:00,57.0,57.0,29.94,WSW,244,1.0,6.0,99,0.04,,,1.42,,2013-01-15 18:33:00,
2013-01-15 13:43:00,57.0,57.0,29.94,WSW,244,1.0,6.0,99,0.04,,,1.42,,2013-01-15 18:43:00,
2013-01-15 13:54:00,58.0,58.0,29.94,SE,137,0.0,5.0,99,0.05,,,1.44,,2013-01-15 18:54:00,
2013-01-15 14:03:00,58.0,57.0,29.93,South,187,1.0,4.0,98,0.05,,,1.37,,2013-01-15 19:03:00,
2013-01-15 14:13:00,58.0,57.0,29.93,South,187,1.0,4.0,98,0.05,,,1.37,,2013-01-15 19:13:00,
2013-01-15 14:23:00,58.0,57.0,29.93,NE,54,3.0,9.0,97,0.06,,,1.38,,2013-01-15 19:23:00,
2013-01-15 14:33:00,58.0,57.0,29.93,ESE,103,3.0,6.0,97,0.06,,,1.40,,2013-01-15 19:33:00,
2013-01-15 14:43:00,58.0,57.0,29.93,ESE,103,3.0,6.0,97,0.06,,,1.40,,2013-01-15 19:43:00,
2013-01-15 14:53:00,58.0,57.0,29.92,WSW,250,3.0,9.0,97,0.07,,,1.43,,2013-01-15 19:53:00,
2013-01-15 15:03:00,58.0,57.0,29.93,WSW,244,1.0,5.0,97,0.09,,,1.43,,2013-01-15 20:03:00,
2013-01-15 15:12:00,58.0,57.0,29.93,WSW,244,1.0,5.0,97,0.09,,,1.43,,2013-01-15 20:12:00,
2013-01-15 15:23:00,58.0,57.0,29.92,SSE,147,0.0,4.0,96,0.13,,,1.48,,2013-01-15 20:23:00,
2013-01-15 15:33:00,58.0,57.0,29.92,SW,233,0.0,8.0,96,0.14,,,1.51,,2013-01-15 20:33:00,
2013-01-15 15:43:00,58.0,57.0,29.92,SW,233,0.0,8.0,96,0.14,,,1.51,,2013-01-15 20:43:00,
2013-01-15 15:53:00,58.0,57.0,29.92,North,351,1.0,5.0,97,0.12,,,1.52,,2013-01-15 20:53:00,
2013-01-15 16:03:00,58.0,57.0,29.94,North,5,2.0,8.0,96,0.10,,,1.45,,2013-01-15 21:03:00,
2013-01-15 16:13:00,58.0,57.0,29.94,North,5,2.0,8.0,96,0.10,,,1.45,,2013-01-15 21:13:00,
2013-01-15 16:23:00,58.0,57.0,29.94,WNW,297,2.0,5.0,97,0.06,,,1.46,,2013-01-15 21:23:00,
2013-01-15 16:33:00,58.0,57.0,29.96,WSW,243,2.0,7.0,97,0.12,,,1.55,,2013-01-15 21:33:00,
2013-01-15 16:43:00,58.0,57.0,29.96,WSW,243,2.0,7.0,97,0.12,,,1.55,,2013-01-15 21:43:00,
2013-01-15 16:53:00,58.0,57.0,29.96,WNW,283,2.0,7.0,97,0.21,,,1.65,,2013-01-15 21:53:00,
2013-01-15 17:03:00,58.0,57.0,29.96,NNE,26,2.0,6.0,96,0.23,,,1.67,,2013-01-15 22:03:00,
2013-01-15 17:12:00,58.0,57.0,29.96,NNE,26,2.0,6.0,96,0.23,,,1.67,,2013-01-15 22:12:00,
2013-01-15 17:23:00,59.0,58.0,29.97,East,86,1.0,4.0,97,0.26,,,1.71,,2013-01-15 22:23:00,
2013-01-15 17:33:00,58.0,57.0,29.98,NE,52,0.0,4.0,97,0.23,,,1.76,,2013-01-15 22:33:00,
2013-01-15 17:43:00,58.0,57.0,29.98,NE,52,0.0,4.0,97,0.23,,,1.76,,2013-01-15 22:43:00,
2013-01-15 17:53:00,58.0,57.0,29.98,NE,52,1.0,2.0,98,0.19,,,1.83,,2013-01-15 22:53:00,
2013-01-15 18:03:00,58.0,57.0,29.97,SW,214,1.0,6.0,98,0.22,,,1.86,,2013-01-15 23:03:00,
2013-01-15 18:13:00,58.0,57.0,29.97,SW,214,1.0,6.0,98,0.22,,,1.86,,2013-01-15 23:13:00,
2013-01-15 18:23:00,59.0,58.0,29.98,ENE,67,0.0,4.0,98,0.32,,,1.99,,2013-01-15 23:23:00,
2013-01-15 18:33:00,59.0,58.0,29.98,ENE,67,0.0,0.0,98,0.31,,,2.04,,2013-01-15 23:33:00,
2013-01-15 18:43:00,59.0,58.0,29.98,ENE,67,0.0,0.0,98,0.31,,,2.04,,2013-01-15 23:43:00,
2013-01-15 18:53:00,59.0,58.0,29.97,ENE,67,0.0,2.0,98,0.32,,,2.12,,2013-01-15 23:53:00,
2013-01-15 19:03:00,59.0,58.0,29.97,ENE,70,0.0,2.0,98,0.35,,,2.11,,2013-01-16 00:03:00,
2013-01-15 19:13:00,59.0,58.0,29.97,ENE,70,0.0,2.0,98,0.35,,,2.11,,2013-01-16 00:13:00,
2013-01-15 19:22:00,59.0,58.0,29.97,North,350,0.0,4.0,98,0.30,,,2.20,,2013-01-16 00:22:00,
2013-01-15 19:33:00,59.0,58.0,29.98,NNW,344,0.0,2.0,98,0.29,,,2.24,,2013-01-16 00:33:00,
2013-01-15 19:43:00,59.0,58.0,29.98,NNW,344,0.0,2.0,98,0.29,,,2.24,,2013-01-16 00:43:00,
2013-01-15 19:53:00,60.0,59.0,29.97,NE,51,0.0,3.0,98,0.28,,,2.31,,2013-01-16 00:53:00,
2013-01-15 20:03:00,59.0,58.0,29.97,North,10,0.0,2.0,98,0.27,,,2.35,,2013-01-16 01:03:00,
2013-01-15 20:12:00,59.0,58.0,29.97,North,10,0.0,2.0,98,0.27,,,2.35,,2013-01-16 01:12:00,
2013-01-15 20:22:00,60.0,60.0,29.96,NE,52,2.0,5.0,99,0.23,,,2.39,,2013-01-16 01:22:00,
2013-01-15 20:33:00,61.0,61.0,29.96,ENE,64,1.0,4.0,99,0.21,,,2.42,,2013-01-16 01:33:00,
2013-01-15 20:43:00,61.0,61.0,29.96,ENE,64,1.0,4.0,99,0.21,,,2.42,,2013-01-16 01:43:00,
2013-01-15 20:53:00,61.0,61.0,29.96,NE,46,1.0,4.0,99,0.14,,,2.42,,2013-01-16 01:53:00,
2013-01-15 21:03:00,61.0,60.0,29.95,WSW,248,3.0,5.0,98,0.14,,,2.48,,2013-01-16 02:03:00,
2013-01-15 21:12:00,61.0,60.0,29.95,WSW,248,3.0,5.0,98,0.14,,,2.48,,2013-01-16 02:12:00,
2013-01-15 21:23:00,61.0,61.0,29.95,ENE,67,0.0,3.0,99,0.14,,,2.52,,2013-01-16 02:23:00,
2013-01-15 21:33:00,61.0,61.0,29.95,West,261,0.0,6.0,99,0.20,,,2.60,,2013-01-16 02:33:00,
2013-01-15 21:43:00,61.0,61.0,29.95,West,261,0.0,6.0,99,0.20,,,2.60,,2013-01-16 02:43:00,
2013-01-15 21:53:00,61.0,60.0,29.95,West,267,1.0,4.0,98,0.19,,,2.60,,2013-01-16 02:53:00,
2013-01-15 22:03:00,61.0,60.0,29.94,SW,235,0.0,5.0,98,0.12,,,2.60,,2013-01-16 03:03:00,
2013-01-15 22:12:00,61.0,60.0,29.94,SW,235,0.0,5.0,98,0.12,,,2.60,,2013-01-16 03:12:00,
2013-01-15 22:22:00,61.0,60.0,29.95,SE,132,0.0,2.0,98,0.12,,,2.64,,2013-01-16 03:22:00,
2013-01-15 22:33:00,61.0,60.0,29.94,SSW,196,0.0,3.0,98,0.06,,,2.66,,2013-01-16 03:33:00,
2013-01-15 22:43:00,61.0,60.0,29.94,SSW,196,0.0,3.0,98,0.06,,,2.66,,2013-01-16 03:43:00,
2013-01-15 22:53:00,61.0,60.0,29.94,ESE,115,1.0,4.0,98,0.07,,,2.67,,2013-01-16 03:53:00,
2013-01-15 23:02:00,61.0,60.0,29.93,NNW,346,1.0,3.0,98,0.07,,,2.67,,2013-01-16 04:02:00,
2013-01-15 23:12:00,61.0,60.0,29.93,NNW,346,1.0,3.0,98,0.07,,,2.67,,2013-01-16 04:12:00,
2013-01-15 23:22:00,61.0,60.0,29.93,East,88,0.0,5.0,98,0.03,,,2.67,,2013-01-16 04:22:00,
2013-01-15 23:33:00,61.0,60.0,29.93,WNW,303,0.0,11.0,98,0.02,,,2.68,,2013-01-16 04:33:00,
2013-01-15 23:42:00,61.0,60.0,29.93,WNW,303,0.0,11.0,98,0.02,,,2.68,,2013-01-16 04:42:00,
2013-01-15 23:53:00,61.0,60.0,29.92,ENE,69,1.0,3.0,98,0.01,,,2.68,,2013-01-16 04:53:00,